Location: Fort Hays State University
(38.8712°N, 99.3432°W)
Time: 03:22:28
(UTC-05:00)

Cosmos 2279 Rocket - Visible Passes

Search period start: 21 April 2015 00:00
Search period end: 01 May 2015 00:00
Orbit: 964 x 980 km, 82.9° (Epoch: 20 April)

Date Brightness Start Highest point End Pass type
(mag) Time Alt. Az. Time Alt. Az. Time Alt. Az.
21 Apr 4.2 22:02:50 10° NNW 22:09:02 69° W 22:14:41 13° S visible
22 Apr 4.9 20:42:32 10° NNE 20:47:52 30° ENE 20:53:18 10° SE visible
22 Apr 5.2 22:27:35 10° NNW 22:33:17 38° W 22:38:55 10° SSW visible
23 Apr 4.2 21:06:25 10° N 21:12:30 54° E 21:18:36 10° SSE visible
23 Apr 6.1 22:52:52 10° NW 22:57:26 21° W 23:01:46 10° SW visible
24 Apr 4.0 21:30:42 10° N 21:36:57 85° W 21:43:12 10° S visible
24 Apr 6.7 23:20:00 10° WNW 23:21:27 11° W 23:22:25 10° W visible
25 Apr 4.9 21:55:18 10° NNW 22:01:14 47° W 22:07:09 10° SSW visible
26 Apr 5.9 22:20:19 10° NNW 22:25:25 26° W 22:30:21 10° SW visible
27 Apr 4.0 20:58:35 10° N 21:04:50 78° E 21:11:05 10° S visible
27 Apr 6.6 22:46:17 10° NW 22:49:29 14° W 22:52:18 10° WSW visible
28 Apr 4.6 21:23:04 10° NNW 21:29:11 59° W 21:35:17 10° S visible
29 Apr 5.7 21:47:54 10° NNW 21:53:24 33° W 21:58:47 10° SSW visible
30 Apr 6.5 22:13:23 10° NW 22:17:30 18° W 22:21:19 10° WSW visible
